Terminal Aerodrome Forecast
Issued by NWS

Home | Current Version | Previous Version | Text Only | Print | Product List | Glossary On
Versions: 1 2 3 4 5 6 7 8 9 10 11 12 13 14 15 16 17 18 19 20 21 22 23 24 25 26 27 28 29 30 31 32 33 34 35 36 37 38 39 40 41 42 43 44 45 46 47 48
000
FTUS45 KBOU 280142 AAA
TAFAPA
TAF AMD
KAPA 280142Z 2802/2824 02009KT P6SM VCTS BKN060CB OVC100
     FM280200 35013KT P6SM -SHRA BKN050 OVC080
      TEMPO 2802/2804 VRB20G38KT +TSRAGS FEW030 OVC045CB
     FM280500 25008KT P6SM VCSH SCT060 BKN110
     FM280600 18007KT P6SM SCT070 BKN120
     FM281600 35010KT P6SM FEW050 SCT090 BKN150
     FM282000 35014KT P6SM SCT060 BKN100
      TEMPO 2820/2824 VRB15G30KT 5SM -TSRA BKN050CB=

USA.gov is the U.S. government's official web portal to all federal, state and local government web resources and services.